This demonstration page uses our WeatherBlox Daily Observations layout. Learn more.

Hourly Observations for February 24, 2018

Temp ( °F °C ) Dew Point ( °F °C ) Humidity (%) Winds ( mph kmh ) Pressure ( in mb ) Visibility ( mi km ) Precip ( " mm )
12:15 am 00:15 Cloudy 23 -4.9 22 -5.6 95 95 ESE 9 15 30.24 1024 10 16.0934 0 0
12:35 am 00:35 Cloudy 23 -4.9 22 -5.5 96 96 E 12 19 30.24 1024 10 16.0934 0 0
12:55 am 00:55 Cloudy 23 -5 22 -5.5 96 96 E 8 13 30.24 1024 10 16.0934 0 0
1:15 am 01:15 Cloudy 23 -5 22 -5.3 98 98 ENE 9 15 30.21 1023 10 16.0934 0 0
1:35 am 01:35 Cloudy with Mist and Fog 23 -5.2 22 -5.5 98 98 ENE 9 15 30.21 1023 5 8.0467 0 0
1:55 am 01:55 Cloudy with Mist and Fog 22 -5.5 22 -5.5 100 100 ENE 9 15 30.18 1022 5 8.0467 0 0
2:15 am 02:15 Cloudy with Mist and Fog 22 -5.5 22 -5.5 100 100 ENE 9 15 30.18 1022 5 8.0467 0 0
2:35 am 02:35 Cloudy with Mist and Fog 22 -5.5 22 -5.5 100 100 ENE 10 17 30.18 1022 5 8.0467 0 0
2:55 am 02:55 Cloudy with Mist and Fog 22 -5.5 22 -5.5 100 100 ENE 10 17 30.15 1021 5 8.0467 0 0
3:15 am 03:15 Cloudy with Mist and Fog 22 -5.6 22 -5.6 100 100 E 8 13 30.15 1021 4 6.43736 0 0
3:35 am 03:35 Cloudy with Mist and Fog 22 -5.7 22 -5.7 100 100 ENE 10 17 30.12 1020 4 6.43736 0 0
3:55 am 03:55 Cloudy 21 -6 21 -6 100 100 ENE 7 11 30.12 1020 7 11.26538 0 0
4:15 am 04:15 Cloudy with Mist and Fog 22 -5.8 21 -6 99 99 ENE 8 13 30.12 1020 5 8.0467 0 0
4:35 am 04:35 Cloudy with Mist and Fog 22 -5.8 22 -5.8 100 100 E 8 13 30.09 1019 2.5 4.02335 0 0
4:55 am 04:55 Cloudy with Mist and Fog 22 -5.8 22 -5.8 100 100 ENE 7 11 30.09 1019 3 4.82802 0 0
5:15 am 05:15 Cloudy with Light Snow 22 -5.8 22 -5.8 100 100 ENE 7 11 30.09 1019 3 4.82802 0 0
5:35 am 05:35 Cloudy with Light Snow 21 -6 21 -6 100 100 ENE 6 9 30.09 1019 3 4.82802 0 0
5:55 am 05:55 Cloudy with Light Snow 21 -6 21 -6 100 100 NE 3 6 30.09 1019 4 6.43736 0 0
6:15 am 06:15 Cloudy 21 -6 21 -6 100 100 NE 3 6 30.09 1019 7 11.26538 0 0
6:35 am 06:35 Cloudy 21 -6 21 -6 100 100 Calm 30.06 1018 10 16.0934 0 0
6:55 am 06:55 Cloudy 21 -6 21 -6 100 100 NE 3 6 30.06 1018 10 16.0934 0 0
7:15 am 07:15 Cloudy 21 -6 21 -6 100 100 ENE 5 7 30.06 1018 10 16.0934 0 0
7:35 am 07:35 Cloudy 21 -5.9 21 -6 99 99 E 7 11 30.03 1017 10 16.0934 0 0
7:55 am 07:55 Cloudy 21 -5.9 21 -6 99 99 ESE 3 6 30.06 1018 10 16.0934 0 0
8:15 am 08:15 Cloudy 22 -5.7 21 -5.9 99 99 Calm 30.06 1018 10 16.0934 0 0
8:35 am 08:35 Cloudy 22 -5.6 22 -5.8 99 99 SE 3 6 30.06 1018 10 16.0934 0 0
8:55 am 08:55 Cloudy 22 -5.5 22 -5.8 98 98 SE 3 6 30.06 1018 10 16.0934 0 0
9:15 am 09:15 Cloudy 22 -5.5 21 -6 96 96 SE 3 6 30.03 1017 10 16.0934 0 0
9:35 am 09:35 Cloudy 22 -5.5 21 -6.1 96 96 Calm 30 1016 7 11.26538 0 0
9:55 am 09:55 Cloudy with Mist and Fog 22 -5.5 21 -6 96 96 Calm 29.97 1015 3 4.82802 0 0
10:15 am 10:15 Cloudy with Mist and Fog 22 -5.3 22 -5.5 99 99 Calm 29.97 1015 3 4.82802 0 0
10:35 am 10:35 Cloudy with Mist and Fog 23 -4.9 23 -5 99 99 Calm 29.91 1013 3 4.82802 0 0
10:55 am 10:55 Cloudy with Mist and Fog 24 -4.3 24 -4.3 100 100 Calm 29.91 1013 5 8.0467 0 0
11:15 am 11:15 Cloudy with Mist and Fog 26 -3.5 26 -3.6 99 99 SW 3 6 29.91 1013 5 8.0467 0 0
11:35 am 11:35 Cloudy 27 -3 26 -3.2 99 99 WSW 6 9 29.91 1013 7 11.26538 0 0
11:55 am 11:55 Cloudy 28 -2.5 27 -3 96 96 WSW 8 13 29.91 1013 10 16.0934 0 0
12:15 pm 12:15 Cloudy 27 -2.6 26 -3.1 96 96 WSW 7 11 29.91 1013 10 16.0934 0 0
12:35 pm 12:35 Cloudy 28 -2 28 -2.5 96 96 WSW 6 9 29.88 1012 10 16.0934 0 0
12:55 pm 12:55 Cloudy 29 -1.4 28 -2.2 94 94 WSW 9 15 29.88 1012 10 16.0934 0 0
1:15 pm 13:15 Cloudy with Light Snow 30 -1.1 27 -2.6 90 90 WSW 9 15 29.85 1011 10 16.0934 0 0
1:35 pm 13:35 Cloudy 32 -0.1 28 -2.1 87 87 WSW 9 15 29.85 1011 10 16.0934 0 0
1:55 pm 13:55 Cloudy with Mist and Fog 32 0 28 -2.1 86 86 W 13 20 29.85 1011 3 4.82802 0 0
2:15 pm 14:15 Cloudy with Mist and Fog 32 0.2 29 -1.9 86 86 W 15 24 29.8 1009 5 8.0467 0 0
2:35 pm 14:35 Cloudy 33 0.5 27 -2.8 79 79 W 15 24 29.8 1009 10 16.0934 0 0
2:55 pm 14:55 Mostly Cloudy 35 1.9 27 -2.7 72 72 W 15 24 29.8 1009 10 16.0934 0 0
3:15 pm 15:15 Partly Cloudy 37 2.6 27 -3 67 67 WNW 14 22 29.8 1009 10 16.0934 0 0
3:35 pm 15:35 Sunny 38 3.2 25 -4.1 59 59 WNW 17 28 29.8 1009 10 16.0934 0 0
3:55 pm 15:55 Sunny 38 3.5 24 -4.6 56 56 WNW 21 33 29.77 1008 10 16.0934 0 0
4:15 pm 16:15 Sunny 38 3.5 23 -5 54 54 WNW 16 26 29.77 1008 10 16.0934 0 0
4:35 pm 16:35 Sunny 38 3.5 22 -5.3 53 53 WNW 18 30 29.77 1008 10 16.0934 0 0
4:55 pm 16:55 Partly Cloudy 38 3.4 20 -6.7 48 48 W 22 35 29.83 1010 10 16.0934 0 0
5:15 pm 17:15 Partly Cloudy 37 3 19 -7.1 48 48 WNW 18 30 29.83 1010 10 16.0934 0 0
5:35 pm 17:35 Sunny 37 2.5 19 -7.5 48 48 WNW 18 30 29.85 1011 10 16.0934 0 0
5:55 pm 17:55 Sunny 35 1.6 19 -7.5 51 51 WNW 16 26 29.85 1011 10 16.0934 0 0
6:15 pm 18:15 Sunny 33 0.8 18 -7.8 53 53 WNW 14 22 29.85 1011 10 16.0934 0 0
6:35 pm 18:35 Clear 32 0.1 18 -7.6 57 57 WNW 10 17 29.88 1012 10 16.0934 0 0
6:55 pm 18:55 Clear 31 -0.7 19 -7.5 60 60 WNW 9 15 29.88 1012 10 16.0934 0 0
7:15 pm 19:15 Clear 32 -0.2 18 -7.7 57 57 WNW 14 22 29.88 1012 10 16.0934 0 0
7:35 pm 19:35 Clear 31 -0.6 18 -7.7 59 59 WNW 12 19 29.91 1013 10 16.0934 0 0
7:55 pm 19:55 Clear 30 -1.2 18 -7.6 62 62 WNW 10 17 29.91 1013 10 16.0934 0 0
8:15 pm 20:15 Clear 29 -1.5 19 -7.5 64 64 WNW 12 19 29.91 1013 10 16.0934 0 0
8:35 pm 20:35 Clear 28 -2 18 -7.6 66 66 WNW 9 15 29.97 1015 10 16.0934 0 0
8:55 pm 20:55 Clear 28 -2.5 18 -8 66 66 WNW 6 9 29.97 1015 10 16.0934 0 0
9:15 pm 21:15 Clear 26 -3.6 17 -8.3 70 70 W 10 17 29.97 1015 10 16.0934 0 0
9:35 pm 21:35 Clear 25 -3.7 17 -8.5 70 70 W 10 17 30 1016 10 16.0934 0 0
9:55 pm 21:55 Clear 26 -3.6 16 -8.7 68 68 W 7 11 29.97 1015 10 16.0934 0 0
10:15 pm 22:15 Clear 24 -4.7 15 -9.2 71 71 W 8 13 30.03 1017 10 16.0934 0 0
10:35 pm 22:35 Clear 24 -4.2 16 -8.9 70 70 W 8 13 30 1016 10 16.0934 0 0
10:55 pm 22:55 Clear 24 -4.6 16 -9.1 71 71 W 9 15 29.97 1015 10 16.0934 0 0
11:15 pm 23:15 Clear 24 -4.3 16 -8.7 72 72 W 9 15 29.97 1015 10 16.0934 0 0
11:35 pm 23:35 Clear 24 -4.2 15 -9.2 68 68 W 8 13 29.97 1015 10 16.0934 0 0
11:55 pm 23:55 Clear 24 -4.3 15 -9.4 68 68 WNW 8 13 29.97 1015 10 16.0934 0 0

Powered by AerisWeather